Location: College Park
(38.9810°N, 76.9370°W)
Time: 22:53:30
(UTC-05:00)

ISS - Pass Details

Date: 03 January 2018
Orbit: 402 x 407 km, 51.6° (Epoch: 18 January)

Event Time Altitude Azimuth Distance (km) Brightness Sun altitude
Exits shadow 06:21:35 11° 340° (NNW) 1,434 -1.4 -12.4°
Maximum altitude 06:22:05 11° 349° (N) 1,419 -1.4 -12.3°
Drops below altitude 10° 06:22:59 10° 5° (N) 1,469 -1.1 -12.1°
Sets 06:26:30 0° 45° (NE) 2,333 0.4 -11.5°
